FW6766 Weather Reports


Display with metric or nautical units.
time (UTC)temp
F
wind
direction
speed
MPH
gust
MPH
rain 1hr
in
rain 24hr
in
rain mn
in
humidity
%
barometer
mb
20260906234516 81 0.0 0.0 0.00 0.07 0.07 70 1012.0
20260906233536 82 0.0 0.0 0.00 0.07 0.07 69 1012.0
20260906232537 83 90 1.0 2.0 0.00 0.07 0.07 68 1011.8
20260906231516 83 0.0 0.0 0.00 0.07 0.07 67 1011.8
20260906230516 84 0.0 0.0 0.00 0.07 0.07 66 1011.8
20260906225516 84 0.0 1.0 0.00 0.07 0.07 67 1011.8
20260906224516 86 0.0 2.0 0.00 0.08 0.07 69 1011.9
20260906223536 86 0.0 0.0 0.00 0.10 0.07 65 1011.9
20260906222517 87 0.0 2.0 0.00 0.12 0.07 62 1011.8
20260906221516 88 315 1.0 3.0 0.00 0.15 0.07 69 1011.9
20260906220516 88 0.0 0.0 0.00 0.15 0.07 66 1011.7
20260906215536 88 0.0 0.0 0.00 0.15 0.07 69 1011.7
20260906214516 88 0.0 0.0 0.00 0.15 0.07 67 1011.7
20260906213516 87 0.0 0.0 0.00 0.15 0.07 71 1011.4
20260906212516 87 0.0 0.0 0.00 0.15 0.07 70 1011.2
20260906211516 86 0.0 0.0 0.00 0.15 0.07 73 1011.2
20260906210516 86 0.0 0.0 0.00 0.15 0.07 69 1011.2
20260906205516 85 0.0 1.0 0.00 0.15 0.07 73 1011.2
20260906204516 85 0.0 0.0 0.00 0.15 0.07 79 1011.4
20260906203516 85 0.0 0.0 0.00 0.15 0.07 76 1011.6
20260906202516 85 0.0 1.0 0.00 0.15 0.07 71 1011.7
20260906201517 85 0.0 2.0 0.00 0.15 0.07 71 1011.9
20260906200515 83 203 2.0 4.0 0.00 0.15 0.07 70 1011.9
20260906195515 81 225 2.0 5.0 0.00 0.15 0.07 77 1012.2
20260906194515 80 203 1.0 3.0 0.01 0.15 0.07 85 1012.3
20260906193537 81 203 1.0 4.0 0.07 0.15 0.07 83 1012.6
20260906192517 82 225 1.0 5.0 0.07 0.15 0.07 87 1012.9
20260906191517 83 0.0 0.0 0.07 0.15 0.07 86 1012.8
20260906190518 84 0.0 0.0 0.07 0.15 0.07 83 1013.0
20260906185518 85 0.0 1.0 0.07 0.15 0.07 82 1013.2
20260906184517 89 0.0 1.0 0.06 0.14 0.06 74 1013.3
20260906183518 91 23 1.0 4.0 0.00 0.08 0.00 59 1013.6
20260906182517 93 113 1.0 4.0 0.00 0.08 0.00 55 1013.7
20260906181517 95 338 2.0 7.0 0.00 0.08 0.00 53 1013.8
20260906180517 94 0 1.0 3.0 0.00 0.08 0.00 55 1013.7
20260906175518 94 0.0 0.0 0.00 0.08 0.00 55 1013.8
20260906174517 93 203 1.0 3.0 0.00 0.08 0.00 62 1014.0
20260906173517 93 203 1.0 4.0 0.00 0.08 0.00 56 1013.8
20260906172517 92 0 1.0 3.0 0.00 0.08 0.00 58 1014.1
20260906171518 91 0.0 0.0 0.00 0.08 0.00 61 1014.2
20260906170517 90 0.0 0.0 0.00 0.08 0.00 61 1014.2
20260906165517 90 68 1.0 5.0 0.00 0.08 0.00 66 1014.4
20260906164518 89 0.0 1.0 0.00 0.08 0.00 66 1014.5
20260906163517 88 158 1.0 3.0 0.00 0.08 0.00 68 1014.5
20260906162517 87 0.0 3.0 0.00 0.08 0.00 68 1014.6
20260906161517 85 0.0 1.0 0.00 0.08 0.00 74 1014.8
20260906160517 85 203 1.0 4.0 0.00 0.08 0.00 75 1015.0
20260906155517 84 203 1.0 5.0 0.00 0.08 0.00 77 1015.0
20260906154517 83 0.0 0.0 0.00 0.08 0.00 80 1014.9
20260906153517 81 0.0 0.0 0.00 0.08 0.00 82 1014.9
20260906152516 81 0.0 0.0 0.00 0.08 0.00 85 1014.8
20260906151517 79 0.0 0.0 0.00 0.08 0.00 88 1014.7
20260906150517 78 0.0 0.0 0.00 0.08 0.00 89 1014.8
20260906144517 76 0.0 0.0 0.00 0.08 0.00 93 1014.6
20260906143517 76 0.0 0.0 0.00 0.08 0.00 93 1014.6
20260906142516 75 0.0 0.0 0.00 0.08 0.00 95 1014.7
20260906141516 75 0.0 0.0 0.00 0.08 0.00 95 1014.6
20260906140517 75 0.0 0.0 0.00 0.08 0.00 96 1014.7
20260906135516 74 0.0 0.0 0.00 0.08 0.00 96 1014.6
20260906134516 73 0.0 0.0 0.00 0.08 0.00 96 1014.6
20260906133516 73 0.0 0.0 0.00 0.08 0.00 97 1014.5
20260906132516 73 0.0 0.0 0.00 0.08 0.00 96 1014.6
20260906131537 73 0.0 0.0 0.00 0.08 0.00 97 1014.6
20260906130516 72 23 1.0 4.0 0.00 0.08 0.00 97 1014.2
20260906125516 72 0.0 0.0 0.00 0.08 0.00 97 1014.3
20260906124516 71 0.0 0.0 0.00 0.08 0.00 96 1014.2
20260906123516 71 0.0 0.0 0.00 0.08 0.00 96 1014.1
20260906122516 71 0.0 0.0 0.00 0.08 0.00 96 1014.0
20260906121517 71 0.0 0.0 0.00 0.08 0.00 96 1014.1
20260906120516 70 0.0 0.0 0.00 0.08 0.00 96 1013.9
20260906115516 70 0.0 0.0 0.00 0.08 0.00 96 1013.7
20260906114516 70 0.0 0.0 0.00 0.08 0.00 96 1013.5
20260906113516 70 0.0 0.0 0.00 0.08 0.00 96 1013.6
20260906112516 70 0.0 0.0 0.00 0.08 0.00 96 1013.7
20260906111516 70 0.0 0.0 0.00 0.08 0.00 96 1013.8
20260906110517 70 0.0 0.0 0.00 0.08 0.00 96 1013.8
20260906105516 70 0.0 0.0 0.00 0.08 0.00 96 1013.8
20260906104516 70 0.0 0.0 0.00 0.08 0.00 96 1013.7
20260906103516 70 0.0 0.0 0.00 0.08 0.00 96 1013.7
20260906102516 70 0.0 0.0 0.00 0.08 0.00 95 1014.1
20260906101536 70 0.0 0.0 0.00 0.08 0.00 96 1014.0
20260906100516 70 0.0 0.0 0.00 0.08 0.00 96 1013.9
20260906095537 70 0.0 0.0 0.00 0.08 0.00 96 1014.1
20260906094515 71 0.0 0.0 0.00 0.08 0.00 96 1014.2
20260906093516 71 0.0 0.0 0.00 0.08 0.00 96 1014.2
20260906092515 71 0.0 0.0 0.00 0.08 0.00 96 1014.3
20260906091515 71 0.0 0.0 0.00 0.08 0.00 96 1014.2
20260906090536 71 0.0 0.0 0.00 0.08 0.00 96 1014.2
20260906085535 71 0.0 0.0 0.00 0.08 0.00 96 1014.3
20260906084536 70 0.0 0.0 0.00 0.08 0.00 96 1014.3
20260906083516 71 0.0 0.0 0.00 0.08 0.00 96 1014.3
20260906082515 70 0.0 0.0 0.00 0.08 0.00 96 1014.2
20260906081516 70 0.0 0.0 0.00 0.08 0.00 95 1014.1
20260906080515 70 0.0 0.0 0.00 0.08 0.00 96 1014.1
20260906075515 70 0.0 0.0 0.00 0.08 0.00 95 1014.1
20260906074516 70 0.0 0.0 0.00 0.08 0.00 95 1014.1
20260906073518 70 0.0 0.0 0.00 0.08 0.00 95 1014.1
20260906072517 71 0.0 0.0 0.00 0.08 0.00 95 1014.1
20260906071517 70 0.0 0.0 0.00 0.08 0.00 95 1014.2
20260906070557 70 0.0 0.0 0.00 0.08 0.00 95 1014.4
20260906065517 71 0.0 0.0 0.00 0.08 0.00 95 1014.2
20260906064517 71 0.0 0.0 0.00 0.08 0.00 95 1014.2
20260906063518 71 0.0 0.0 0.00 0.08 0.00 95 1014.3
20260906062518 71 0.0 0.0 0.00 0.08 0.00 95 1014.2
20260906061517 71 0.0 0.0 0.00 0.08 0.00 95 1014.6
20260906060517 71 0.0 0.0 0.00 0.08 0.00 95 1014.7
20260906055517 71 0.0 0.0 0.00 0.08 0.00 95 1014.9
20260906054517 71 0.0 0.0 0.00 0.08 0.00 95 1015.0
20260906053517 71 0.0 0.0 0.00 0.08 0.00 95 1015.1
20260906052517 71 0.0 0.0 0.00 0.08 0.00 95 1015.1
20260906051517 71 0.0 0.0 0.00 0.08 0.00 95 1015.2
20260906050517 71 0.0 0.0 0.00 0.08 0.00 95 1015.3
20260906045517 71 0.0 0.0 0.00 0.08 0.00 95 1015.1
20260906044517 71 0.0 0.0 0.00 0.08 0.00 95 1015.0
20260906043517 71 0.0 0.0 0.00 0.08 0.00 94 1015.0
20260906042517 71 0.0 0.0 0.00 0.08 0.00 94 1014.9
20260906041517 72 0.0 0.0 0.00 0.08 0.00 94 1014.9
20260906040517 72 0.0 0.0 0.00 0.08 0.00 95 1014.9
20260906035517 72 0.0 0.0 0.00 0.08 0.08 94 1014.8
20260906034517 72 0.0 0.0 0.00 0.08 0.08 94 1014.8
20260906033517 72 0.0 0.0 0.00 0.08 0.08 94 1014.7
20260906032517 72 0.0 0.0 0.00 0.08 0.08 94 1015.0
20260906031517 72 0.0 0.0 0.00 0.08 0.08 94 1015.0
20260906030517 72 0.0 0.0 0.00 0.08 0.08 94 1015.4
20260906025517 72 0.0 0.0 0.00 0.08 0.08 94 1015.3
20260906024517 72 0.0 0.0 0.00 0.08 0.08 94 1015.2
20260906023516 72 0.0 0.0 0.00 0.08 0.08 94 1015.1
20260906022517 72 0.0 0.0 0.00 0.08 0.08 93 1015.0
20260906021516 73 0.0 0.0 0.00 0.08 0.08 93 1014.8
20260906020516 73 0.0 0.0 0.00 0.08 0.08 93 1014.8
20260906015517 73 0.0 0.0 0.00 0.08 0.08 93 1014.8
20260906014517 73 0.0 0.0 0.00 0.08 0.08 93 1014.8
20260906013517 73 203 1.0 3.0 0.00 0.08 0.08 93 1014.9
20260906012517 74 0.0 0.0 0.00 0.08 0.08 94 1014.9
20260906011516 74 0.0 1.0 0.00 0.08 0.08 94 1014.5
20260906010517 74 203 1.0 4.0 0.00 0.08 0.08 94 1014.2
20260906005517 74 203 1.0 4.0 0.00 0.08 0.08 94 1013.8
20260906004537 73 0.0 3.0 0.00 0.08 0.08 93 1013.7
20260906003516 73 0.0 0.0 0.00 0.08 0.08 93 1013.1
20260906002516 74 0.0 0.0 0.00 0.08 0.08 93 1013.1
20260906001516 74 0.0 0.0 0.00 0.08 0.08 92 1013.0
20260906000516 74 0.0 0.0 0.00 0.08 0.08 93 1012.7
20260905235516 74 0.0 2.0 0.00 0.08 0.08 92 1012.3